TAP1920 LPPT-LPPR

Flight info

Callsign TAP1920
Flight time 0h 46m
Altitude 22000
Route IXIDA DCT ABLEG
Aircraft A320/M-SDE3FGHIRWY/LB1

Departure

Time 2026-05-08 05:24
Airport Lisbon Humberto Delgado Airport (LPPT)

Arrival

Time 2026-05-08 06:11
Airport Francisco de Sá Carneiro Airport (LPPR)
Time Latitude Longitude Altitude Speed Heading
2026-05-08 04:56 38.77254 -9.13164 347 ft 0 kts 75°
2026-05-08 05:04 38.77252 -9.13176 347 ft 2 kts 75°
2026-05-08 05:04 38.77247 -9.13197 352 ft 3 kts 52°
2026-05-08 05:04 38.77233 -9.13212 358 ft 3 kts 15°
2026-05-08 05:05 38.77228 -9.13214 358 ft 0 kts 14°
2026-05-08 05:09 38.77233 -9.13214 347 ft 4 kts
2026-05-08 05:09 38.77272 -9.13229 347 ft 6 kts 343°
2026-05-08 05:09 38.77308 -9.13239 347 ft 5 kts 350°
2026-05-08 05:09 38.77337 -9.13244 355 ft 4 kts 352°
2026-05-08 05:10 38.77377 -9.13255 349 ft 10 kts 348°
2026-05-08 05:10 38.77524 -9.13304 354 ft 10 kts 345°
2026-05-08 05:10 38.77585 -9.13319 347 ft 8 kts 352°
2026-05-08 05:11 38.77639 -9.13317 357 ft 7 kts 360°
2026-05-08 05:11 38.77702 -9.13329 351 ft 12 kts 349°
2026-05-08 05:11 38.77799 -9.13355 347 ft 15 kts 347°
2026-05-08 05:11 38.77879 -9.13378 347 ft 0 kts 348°
2026-05-08 05:12 38.77881 -9.13378 347 ft 3 kts 348°
2026-05-08 05:12 38.77946 -9.13393 347 ft 15 kts 349°
2026-05-08 05:12 38.78047 -9.13387 357 ft 14 kts 13°
2026-05-08 05:12 38.78136 -9.13351 352 ft 13 kts 22°
2026-05-08 05:13 38.78240 -9.13297 348 ft 22 kts 21°
2026-05-08 05:13 38.78328 -9.13255 349 ft 0 kts 15°
2026-05-08 05:14 38.78332 -9.13253 351 ft 1 kts 17°
2026-05-08 05:14 38.78342 -9.13248 349 ft 4 kts 20°
2026-05-08 05:14 38.78408 -9.13223 353 ft 14 kts
2026-05-08 05:14 38.78495 -9.13240 347 ft 12 kts 335°
2026-05-08 05:15 38.78557 -9.13329 356 ft 16 kts 315°
2026-05-08 05:15 38.78662 -9.13389 347 ft 17 kts 347°
2026-05-08 05:15 38.78771 -9.13418 347 ft 10 kts 350°
2026-05-08 05:15 38.78838 -9.13435 347 ft 9 kts 349°
2026-05-08 05:16 38.78875 -9.13436 352 ft 11 kts
2026-05-08 05:16 38.78942 -9.13407 352 ft 10 kts 22°
2026-05-08 05:16 38.78997 -9.13374 353 ft 8 kts 24°
2026-05-08 05:16 38.79047 -9.13350 348 ft 7 kts 18°
2026-05-08 05:17 38.79090 -9.13331 351 ft 6 kts 20°
2026-05-08 05:17 38.79124 -9.13312 354 ft 5 kts 25°
2026-05-08 05:17 38.79150 -9.13296 353 ft 4 kts 25°
2026-05-08 05:17 38.79173 -9.13284 352 ft 3 kts 22°
2026-05-08 05:18 38.79203 -9.13268 352 ft 9 kts 22°
2026-05-08 05:18 38.79278 -9.13227 354 ft 12 kts 22°
2026-05-08 05:18 38.79350 -9.13188 351 ft 11 kts 22°
2026-05-08 05:18 38.79415 -9.13154 350 ft 10 kts 22°
2026-05-08 05:19 38.79480 -9.13119 351 ft 13 kts 24°
2026-05-08 05:19 38.79592 -9.13058 352 ft 22 kts 22°
2026-05-08 05:19 38.79642 -9.13037 355 ft 0 kts 13°
2026-05-08 05:19 38.79642 -9.13036 354 ft 0 kts 13°
2026-05-08 05:20 38.79646 -9.13035 353 ft 1 kts 16°
2026-05-08 05:20 38.79650 -9.13033 352 ft 0 kts 18°
2026-05-08 05:20 38.79651 -9.13033 352 ft 0 kts 19°
2026-05-08 05:21 38.79668 -9.13022 353 ft 7 kts 27°
2026-05-08 05:21 38.79705 -9.12997 353 ft 6 kts 26°
2026-05-08 05:21 38.79732 -9.12981 357 ft 0 kts 26°
2026-05-08 05:22 38.79733 -9.12980 357 ft 2 kts 26°
2026-05-08 05:22 38.79762 -9.12941 352 ft 10 kts 64°
2026-05-08 05:22 38.79753 -9.12852 357 ft 9 kts 114°
2026-05-08 05:23 38.79726 -9.12797 355 ft 6 kts 132°
2026-05-08 05:23 38.79698 -9.12775 352 ft 4 kts 161°
2026-05-08 05:23 38.79671 -9.12775 352 ft 5 kts 189°
2026-05-08 05:23 38.79593 -9.12814 354 ft 35 kts 204°
2026-05-08 05:24 38.79141 -9.13055 357 ft 104 kts 202°
2026-05-08 05:24 38.78313 -9.13498 357 ft 153 kts 203°
2026-05-08 05:24 38.77323 -9.14020 910 ft 153 kts 205°
2026-05-08 05:24 38.76349 -9.14590 1533 ft 157 kts 205°
2026-05-08 05:25 38.75307 -9.15157 2022 ft 170 kts 204°
2026-05-08 05:25 38.74169 -9.15759 2497 ft 185 kts 204°
2026-05-08 05:25 38.72913 -9.16419 2973 ft 201 kts 203°
2026-05-08 05:25 38.71584 -9.17118 3487 ft 217 kts 203°
2026-05-08 05:26 38.70135 -9.17883 4079 ft 234 kts 203°
2026-05-08 05:26 38.68568 -9.18711 4723 ft 252 kts 203°
2026-05-08 05:26 38.66961 -9.19718 5473 ft 261 kts 217°
2026-05-08 05:26 38.65760 -9.21453 6442 ft 264 kts 242°
2026-05-08 05:27 38.65258 -9.23710 7357 ft 268 kts 267°
2026-05-08 05:27 38.65585 -9.26063 8272 ft 274 kts 290°
2026-05-08 05:27 38.66582 -9.28160 9177 ft 280 kts 310°
2026-05-08 05:27 38.68114 -9.29733 10032 ft 288 kts 330°
2026-05-08 05:28 38.70038 -9.30540 10572 ft 307 kts 352°
2026-05-08 05:28 38.72214 -9.30289 11075 ft 326 kts 17°
2026-05-08 05:28 38.74255 -9.28904 11680 ft 338 kts 33°
2026-05-08 05:28 38.76227 -9.27211 12425 ft 344 kts 32°
2026-05-08 05:29 38.78226 -9.25490 13235 ft 348 kts 32°
2026-05-08 05:29 38.80247 -9.23752 13988 ft 352 kts 32°
2026-05-08 05:29 38.82295 -9.21999 14677 ft 356 kts 32°
2026-05-08 05:29 38.84322 -9.20221 15354 ft 360 kts 36°
2026-05-08 05:30 38.86172 -9.18018 16037 ft 366 kts 46°
2026-05-08 05:30 38.87876 -9.15559 16689 ft 371 kts 47°
2026-05-08 05:30 38.89601 -9.13071 17360 ft 375 kts 47°
2026-05-08 05:30 38.91345 -9.10556 18023 ft 379 kts 46°
2026-05-08 05:31 38.93109 -9.08012 18617 ft 383 kts 46°
2026-05-08 05:31 38.94891 -9.05448 19208 ft 386 kts 46°
2026-05-08 05:31 38.96684 -9.02869 19810 ft 389 kts 46°
2026-05-08 05:31 38.98489 -9.00263 20405 ft 392 kts 47°
2026-05-08 05:32 39.00282 -8.97670 21026 ft 395 kts 47°
2026-05-08 05:32 39.02111 -8.95022 21617 ft 397 kts 47°
2026-05-08 05:32 39.03951 -8.92358 21858 ft 398 kts 47°
2026-05-08 05:32 39.05764 -8.89728 21909 ft 385 kts 47°
2026-05-08 05:33 39.07500 -8.87205 21913 ft 371 kts 47°
2026-05-08 05:33 39.09207 -8.84724 21909 ft 370 kts 47°
2026-05-08 05:33 39.10915 -8.82240 21912 ft 370 kts 47°
2026-05-08 05:33 39.12598 -8.79789 21910 ft 370 kts 48°
2026-05-08 05:34 39.14304 -8.77306 21913 ft 370 kts 48°
2026-05-08 05:34 39.16011 -8.74822 21909 ft 370 kts 48°
2026-05-08 05:34 39.17717 -8.72336 21907 ft 370 kts 48°
2026-05-08 05:34 39.19421 -8.69846 21906 ft 370 kts 48°
2026-05-08 05:35 39.21124 -8.67355 21911 ft 370 kts 48°
2026-05-08 05:35 39.22829 -8.64862 21912 ft 371 kts 49°
2026-05-08 05:35 39.24529 -8.62370 21919 ft 371 kts 49°
2026-05-08 05:35 39.26229 -8.59870 21919 ft 370 kts 49°
2026-05-08 05:36 39.27907 -8.57404 21925 ft 370 kts 49°
2026-05-08 05:36 39.29610 -8.54906 21922 ft 371 kts 49°
2026-05-08 05:36 39.31306 -8.52417 21927 ft 371 kts 49°
2026-05-08 05:36 39.33000 -8.49929 21925 ft 371 kts 49°
2026-05-08 05:37 39.34161 -8.48220 21925 ft 371 kts 49°
2026-05-08 05:37 39.35072 -8.46876 21925 ft 371 kts 49°
2026-05-08 05:37 39.36486 -8.44796 21925 ft 371 kts 49°
2026-05-08 05:37 39.38158 -8.42336 21925 ft 371 kts 49°
2026-05-08 05:38 39.39036 -8.41041 21923 ft 371 kts 49°
2026-05-08 05:38 39.39310 -8.40631 21925 ft 370 kts 50°
2026-05-08 05:38 39.40522 -8.38716 21943 ft 371 kts 51°
2026-05-08 05:38 39.42185 -8.36164 21939 ft 371 kts 50°
2026-05-08 05:39 39.43891 -8.33657 21933 ft 371 kts 49°
2026-05-08 05:39 39.45629 -8.31151 21947 ft 373 kts 49°
2026-05-08 05:39 39.47356 -8.28658 21945 ft 372 kts 49°
2026-05-08 05:39 39.49074 -8.26157 21938 ft 372 kts 49°
2026-05-08 05:40 39.50760 -8.23678 21937 ft 372 kts 50°
2026-05-08 05:40 39.52465 -8.21156 21933 ft 372 kts 50°
2026-05-08 05:40 39.54166 -8.18629 21932 ft 372 kts 50°
2026-05-08 05:40 39.55863 -8.16095 21931 ft 372 kts 50°
2026-05-08 05:41 39.57558 -8.13558 21931 ft 372 kts 51°
2026-05-08 05:41 39.59255 -8.11018 21927 ft 373 kts 51°
2026-05-08 05:41 39.60950 -8.08486 21926 ft 373 kts 51°
2026-05-08 05:41 39.62829 -8.06160 21929 ft 374 kts 37°
2026-05-08 05:42 39.65065 -8.04524 21915 ft 376 kts 22°
2026-05-08 05:42 39.67592 -8.03658 21906 ft 377 kts
2026-05-08 05:42 39.70204 -8.03642 21903 ft 376 kts 351°
2026-05-08 05:42 39.72742 -8.04409 21910 ft 375 kts 342°
2026-05-08 05:43 39.75237 -8.05364 21915 ft 375 kts 342°
2026-05-08 05:43 39.77744 -8.06334 21910 ft 375 kts 342°
2026-05-08 05:43 39.80239 -8.07300 21913 ft 375 kts 342°
2026-05-08 05:43 39.82740 -8.08266 21911 ft 375 kts 342°
2026-05-08 05:44 39.85207 -8.09218 21913 ft 375 kts 342°
2026-05-08 05:44 39.87710 -8.10182 21911 ft 375 kts 342°
2026-05-08 05:44 39.90214 -8.11141 21912 ft 375 kts 342°
2026-05-08 05:44 39.92717 -8.12099 21912 ft 375 kts 342°
2026-05-08 05:45 39.95220 -8.13060 21913 ft 375 kts 342°
2026-05-08 05:45 39.97725 -8.14026 21912 ft 376 kts 342°
2026-05-08 05:45 40.00231 -8.14994 21914 ft 375 kts 342°
2026-05-08 05:45 40.02736 -8.15964 21914 ft 376 kts 342°
2026-05-08 05:46 40.05208 -8.16920 21917 ft 376 kts 342°
2026-05-08 05:46 40.07717 -8.17889 21916 ft 376 kts 342°
2026-05-08 05:46 40.10222 -8.18854 21913 ft 376 kts 342°
2026-05-08 05:46 40.12734 -8.19824 21911 ft 377 kts 342°
2026-05-08 05:47 40.15278 -8.20811 21916 ft 391 kts 342°
2026-05-08 05:47 40.17918 -8.21840 21784 ft 394 kts 342°
2026-05-08 05:47 40.20531 -8.22857 21351 ft 390 kts 342°
2026-05-08 05:47 40.23117 -8.23862 20913 ft 385 kts 342°
2026-05-08 05:48 40.25633 -8.24838 20214 ft 379 kts 342°
2026-05-08 05:48 40.28150 -8.25818 19403 ft 375 kts 342°
2026-05-08 05:48 40.30660 -8.26795 18937 ft 375 kts 342°
2026-05-08 05:48 40.33146 -8.27763 18550 ft 371 kts 342°
2026-05-08 05:49 40.35611 -8.28722 18160 ft 368 kts 342°
2026-05-08 05:49 40.38055 -8.29676 17691 ft 366 kts 342°
2026-05-08 05:49 40.40463 -8.30633 17503 ft 356 kts 341°
2026-05-08 05:49 40.42797 -8.31571 17355 ft 346 kts 341°
2026-05-08 05:50 40.45079 -8.32492 17059 ft 341 kts 341°
2026-05-08 05:50 40.47308 -8.33396 16699 ft 339 kts 341°
2026-05-08 05:50 40.49554 -8.34314 16320 ft 337 kts 341°
2026-05-08 05:50 40.51799 -8.35208 15957 ft 336 kts 342°
2026-05-08 05:51 40.54047 -8.36052 15588 ft 336 kts 343°
2026-05-08 05:51 40.56293 -8.36882 15210 ft 335 kts 343°
2026-05-08 05:51 40.58533 -8.37722 14849 ft 334 kts 343°
2026-05-08 05:51 40.60766 -8.38577 14487 ft 334 kts 343°
2026-05-08 05:52 40.62992 -8.39443 14143 ft 333 kts 343°
2026-05-08 05:52 40.65207 -8.40312 13803 ft 332 kts 343°
2026-05-08 05:52 40.67391 -8.41173 13433 ft 332 kts 343°
2026-05-08 05:52 40.69597 -8.42049 13064 ft 330 kts 341°
2026-05-08 05:53 40.71694 -8.43238 12726 ft 327 kts 329°
2026-05-08 05:53 40.73578 -8.44876 12365 ft 323 kts 318°
2026-05-08 05:53 40.75219 -8.46865 12019 ft 319 kts 312°
2026-05-08 05:53 40.76804 -8.48902 11685 ft 317 kts 313°
2026-05-08 05:54 40.78382 -8.50920 11338 ft 315 kts 313°
2026-05-08 05:54 40.79931 -8.52896 11004 ft 313 kts 313°
2026-05-08 05:54 40.81491 -8.54887 10881 ft 312 kts 312°
2026-05-08 05:54 40.83053 -8.56886 10894 ft 313 kts 312°
2026-05-08 05:55 40.84617 -8.58892 10899 ft 313 kts 312°
2026-05-08 05:55 40.86180 -8.60898 10896 ft 313 kts 312°
2026-05-08 05:55 40.87740 -8.62899 10895 ft 313 kts 312°
2026-05-08 05:55 40.89304 -8.64911 10892 ft 313 kts 312°
2026-05-08 05:56 40.90865 -8.66923 10894 ft 314 kts 312°
2026-05-08 05:56 40.92427 -8.68937 10888 ft 314 kts 311°
2026-05-08 05:56 40.93970 -8.70923 10887 ft 314 kts 311°
2026-05-08 05:56 40.95651 -8.72779 10884 ft 317 kts 323°
2026-05-08 05:57 40.97602 -8.74169 10820 ft 321 kts 335°
2026-05-08 05:57 40.99737 -8.75011 10570 ft 321 kts 348°
2026-05-08 05:57 41.01932 -8.75570 10319 ft 321 kts 348°
2026-05-08 05:57 41.04123 -8.76140 10073 ft 321 kts 347°
2026-05-08 05:58 41.06308 -8.76716 9821 ft 320 kts 347°
2026-05-08 05:58 41.08458 -8.77286 9698 ft 320 kts 347°
2026-05-08 05:58 41.10668 -8.77877 9570 ft 319 kts 347°
2026-05-08 05:58 41.12809 -8.78450 9426 ft 317 kts 347°
2026-05-08 05:59 41.14971 -8.79026 9291 ft 316 kts 347°
2026-05-08 05:59 41.17126 -8.79599 9157 ft 315 kts 347°
2026-05-08 05:59 41.19273 -8.80170 9023 ft 314 kts 347°
2026-05-08 05:59 41.21411 -8.80738 8893 ft 313 kts 347°
2026-05-08 06:00 41.23542 -8.81304 8754 ft 312 kts 347°
2026-05-08 06:00 41.25668 -8.81869 8625 ft 311 kts 347°
2026-05-08 06:00 41.27784 -8.82430 8497 ft 309 kts 347°
2026-05-08 06:00 41.29857 -8.82980 8369 ft 307 kts 347°
2026-05-08 06:01 41.31909 -8.83521 8242 ft 295 kts 347°
2026-05-08 06:01 41.33881 -8.84039 8110 ft 283 kts 347°
2026-05-08 06:01 41.35775 -8.84540 7982 ft 272 kts 347°
2026-05-08 06:01 41.37598 -8.85023 7860 ft 262 kts 347°
2026-05-08 06:02 41.39358 -8.85488 7701 ft 257 kts 347°
2026-05-08 06:02 41.41082 -8.85946 7384 ft 256 kts 347°
2026-05-08 06:02 41.42827 -8.86422 7047 ft 254 kts 347°
2026-05-08 06:02 41.44535 -8.86890 6829 ft 248 kts 347°
2026-05-08 06:03 41.46209 -8.87311 6602 ft 242 kts 355°
2026-05-08 06:03 41.47845 -8.87094 6465 ft 234 kts 18°
2026-05-08 06:03 41.49253 -8.86097 6236 ft 229 kts 41°
2026-05-08 06:03 41.50249 -8.84501 6057 ft 220 kts 64°
2026-05-08 06:04 41.50742 -8.82622 5851 ft 213 kts 82°
2026-05-08 06:04 41.51020 -8.80685 5535 ft 214 kts 81°
2026-05-08 06:04 41.51285 -8.78695 4955 ft 227 kts 88°
2026-05-08 06:04 41.50979 -8.76614 4337 ft 235 kts 120°
2026-05-08 06:05 41.49886 -8.75031 3973 ft 231 kts 150°
2026-05-08 06:05 41.48421 -8.74337 3852 ft 218 kts 169°
2026-05-08 06:05 41.46975 -8.73960 3791 ft 205 kts 169°
2026-05-08 06:05 41.45616 -8.73602 3732 ft 193 kts 169°
2026-05-08 06:06 41.44310 -8.73258 3553 ft 191 kts 169°
2026-05-08 06:06 41.43020 -8.72918 3291 ft 192 kts 169°
2026-05-08 06:06 41.41714 -8.72573 3030 ft 191 kts 169°
2026-05-08 06:06 41.40414 -8.72231 2775 ft 191 kts 169°
2026-05-08 06:07 41.39120 -8.71890 2520 ft 187 kts 169°
2026-05-08 06:07 41.37861 -8.71558 2297 ft 179 kts 169°
2026-05-08 06:07 41.36703 -8.71252 2089 ft 166 kts 169°
2026-05-08 06:07 41.35794 -8.71013 1901 ft 157 kts 169°
2026-05-08 06:08 41.34753 -8.70739 1726 ft 147 kts 169°
2026-05-08 06:08 41.33783 -8.70484 1561 ft 135 kts 169°
2026-05-08 06:08 41.32875 -8.70245 1412 ft 133 kts 169°
2026-05-08 06:08 41.31984 -8.70011 1252 ft 133 kts 169°
2026-05-08 06:09 41.31078 -8.69773 1080 ft 132 kts 169°
2026-05-08 06:09 41.30172 -8.69535 925 ft 133 kts 168°
2026-05-08 06:09 41.29301 -8.69307 772 ft 132 kts 168°
2026-05-08 06:09 41.28399 -8.69063 622 ft 133 kts 169°
2026-05-08 06:10 41.27490 -8.68867 473 ft 131 kts 167°
2026-05-08 06:10 41.26594 -8.68613 319 ft 132 kts 166°
2026-05-08 06:10 41.25702 -8.68361 194 ft 131 kts 167°
2026-05-08 06:10 41.24928 -8.68153 198 ft 95 kts 167°
2026-05-08 06:11 41.24383 -8.68016 216 ft 69 kts 169°
2026-05-08 06:11 41.24209 -8.67973 217 ft 0 kts 168°
2026-05-08 06:11 41.24193 -8.67968 215 ft 9 kts 167°
2026-05-08 06:11 41.24120 -8.67947 214 ft 12 kts 168°
2026-05-08 06:12 41.24038 -8.67925 219 ft 12 kts 169°
2026-05-08 06:12 41.23964 -8.67909 220 ft 9 kts 169°
2026-05-08 06:12 41.23918 -8.67887 220 ft 5 kts 149°
2026-05-08 06:12 41.23893 -8.67842 221 ft 7 kts 105°
2026-05-08 06:13 41.23892 -8.67818 223 ft 0 kts 91°
2026-05-08 06:13 41.23892 -8.67806 224 ft 0 kts 88°
2026-05-08 06:13 41.23896 -8.67761 227 ft 6 kts 82°
2026-05-08 06:14 41.23900 -8.67723 230 ft 8 kts 81°
2026-05-08 06:14 41.23913 -8.67642 236 ft 7 kts 77°
2026-05-08 06:14 41.23923 -8.67542 236 ft 13 kts 105°
2026-05-08 06:14 41.23852 -8.67483 237 ft 13 kts 170°
2026-05-08 06:15 41.23795 -8.67473 237 ft 2 kts 173°
2026-05-08 06:15 41.23781 -8.67469 237 ft 2 kts 164°
2026-05-08 06:15 41.23771 -8.67462 237 ft 4 kts 153°
2026-05-08 06:15 41.23748 -8.67441 238 ft 2 kts 140°
2026-05-08 06:16 41.23738 -8.67426 239 ft 6 kts 131°
2026-05-08 06:16 41.23727 -8.67391 241 ft 1 kts 94°
2026-05-08 06:16 41.23736 -8.67357 243 ft 9 kts 59°
2026-05-08 06:16 41.23774 -8.67297 243 ft 0 kts 46°